Time,TemperatureF,DewpointF,PressureIn,WindDirection,WindDirectionDegrees,WindSpeedMPH,WindSpeedGustMPH,Humidity,HourlyPrecipIn,Conditions,Clouds,dailyrainin,SoftwareType,DateUTC
2013-08-12 00:00:00,67.1,64.1,30.05,WNW,291,0.0,0.0,90,0.00,,,0.00,VWS V14.01,2013-08-12 04:00:00,
2013-08-12 00:01:00,67.1,64.1,30.05,WNW,291,0.0,0.0,90,0.00,,,0.00,VWS V14.01,2013-08-12 04:01:00,
2013-08-12 00:02:00,67.1,64.1,30.05,WNW,291,0.0,0.0,90,0.00,,,0.00,VWS V14.01,2013-08-12 04:02:00,
2013-08-12 00:04:00,66.9,63.9,30.05,WNW,291,0.0,0.0,90,0.00,,,0.00,VWS V14.01,2013-08-12 04:04:00,
2013-08-12 00:09:00,66.8,63.8,30.05,WNW,291,0.0,0.0,90,0.00,,,0.00,VWS V14.01,2013-08-12 04:09:00,
2013-08-12 00:14:00,66.8,63.8,30.04,WNW,291,0.0,0.0,90,0.00,,,0.00,VWS V14.01,2013-08-12 04:14:00,
2013-08-12 00:15:00,66.6,63.6,30.04,WNW,291,0.0,0.0,90,0.00,,,0.00,VWS V14.01,2013-08-12 04:15:00,
2013-08-12 00:19:00,66.6,63.6,30.04,WNW,291,0.0,0.0,90,0.00,,,0.00,VWS V14.01,2013-08-12 04:19:00,
2013-08-12 00:24:00,66.4,63.4,30.04,WNW,291,0.0,0.0,90,0.00,,,0.00,VWS V14.01,2013-08-12 04:24:00,
2013-08-12 00:29:00,66.3,63.6,30.05,WNW,291,0.0,0.0,91,0.00,,,0.00,VWS V14.01,2013-08-12 04:29:00,
2013-08-12 00:30:00,66.3,63.6,30.05,WNW,291,0.0,0.0,91,0.00,,,0.00,VWS V14.01,2013-08-12 04:30:00,
2013-08-12 00:34:00,66.3,63.6,30.05,WNW,291,0.0,0.0,91,0.00,,,0.00,VWS V14.01,2013-08-12 04:34:00,
2013-08-12 00:39:00,66.1,63.4,30.05,WNW,291,0.0,0.0,91,0.00,,,0.00,VWS V14.01,2013-08-12 04:39:00,
2013-08-12 00:44:00,66.0,63.3,30.05,WNW,291,0.0,0.0,91,0.00,,,0.00,VWS V14.01,2013-08-12 04:44:00,
2013-08-12 00:45:00,66.0,63.3,30.05,WNW,291,0.0,0.0,91,0.00,,,0.00,VWS V14.01,2013-08-12 04:45:00,
2013-08-12 00:49:00,65.8,63.1,30.05,WNW,291,0.0,0.0,91,0.00,,,0.00,VWS V14.01,2013-08-12 04:49:00,
2013-08-12 00:54:00,65.8,63.1,30.05,WNW,291,0.0,0.0,91,0.00,,,0.00,VWS V14.01,2013-08-12 04:54:00,
2013-08-12 00:59:00,65.6,62.9,30.05,WNW,291,0.0,0.0,91,0.00,,,0.00,VWS V14.01,2013-08-12 04:59:00,
2013-08-12 01:00:00,65.6,62.9,30.05,WNW,291,0.0,0.0,91,0.00,,,0.00,VWS V14.01,2013-08-12 05:00:00,
2013-08-12 01:04:00,65.5,63.1,30.05,WNW,291,0.0,0.0,92,0.00,,,0.00,VWS V14.01,2013-08-12 05:04:00,
2013-08-12 01:09:00,65.3,62.9,30.05,WNW,291,0.0,0.0,92,0.00,,,0.00,VWS V14.01,2013-08-12 05:09:00,
2013-08-12 01:14:00,65.2,62.8,30.05,WNW,291,0.0,0.0,92,0.00,,,0.00,VWS V14.01,2013-08-12 05:14:00,
2013-08-12 01:15:00,65.2,62.8,30.05,WNW,291,0.0,0.0,92,0.00,,,0.00,VWS V14.01,2013-08-12 05:15:00,
2013-08-12 01:19:00,65.0,62.6,30.05,WNW,291,0.0,0.0,92,0.00,,,0.00,VWS V14.01,2013-08-12 05:19:00,
2013-08-12 01:24:00,64.8,62.4,30.05,WNW,291,0.0,0.0,92,0.00,,,0.00,VWS V14.01,2013-08-12 05:24:00,
2013-08-12 01:29:00,64.8,62.4,30.05,WNW,291,0.0,0.0,92,0.00,,,0.00,VWS V14.01,2013-08-12 05:29:00,
2013-08-12 01:30:00,64.7,62.3,30.05,WNW,291,0.0,0.0,92,0.00,,,0.00,VWS V14.01,2013-08-12 05:30:00,
2013-08-12 01:34:00,64.7,62.3,30.05,WNW,291,0.0,0.0,92,0.00,,,0.00,VWS V14.01,2013-08-12 05:34:00,
2013-08-12 01:39:00,64.5,62.1,30.05,WNW,291,0.0,0.0,92,0.00,,,0.00,VWS V14.01,2013-08-12 05:39:00,
2013-08-12 01:44:00,64.3,61.9,30.05,WNW,291,0.0,0.0,92,0.00,,,0.00,VWS V14.01,2013-08-12 05:44:00,
2013-08-12 01:45:00,64.3,61.9,30.05,WNW,291,0.0,0.0,92,0.00,,,0.00,VWS V14.01,2013-08-12 05:45:00,
2013-08-12 01:50:00,64.3,61.9,30.05,WNW,291,0.0,0.0,92,0.00,,,0.00,VWS V14.01,2013-08-12 05:50:00,
2013-08-12 01:55:00,64.2,61.8,30.05,WNW,291,0.0,0.0,92,0.00,,,0.00,VWS V14.01,2013-08-12 05:55:00,
2013-08-12 02:00:00,64.2,62.1,30.05,WNW,291,0.0,0.0,93,0.00,,,0.00,VWS V14.01,2013-08-12 06:00:00,
2013-08-12 02:05:00,64.2,62.1,30.05,WNW,291,0.0,0.0,93,0.00,,,0.00,VWS V14.01,2013-08-12 06:05:00,
2013-08-12 02:10:00,64.2,62.1,30.05,WNW,291,0.0,0.0,93,0.00,,,0.00,VWS V14.01,2013-08-12 06:10:00,
2013-08-12 02:15:00,64.0,61.9,30.05,WNW,291,0.0,0.0,93,0.00,,,0.00,VWS V14.01,2013-08-12 06:15:00,
2013-08-12 02:20:00,64.0,61.9,30.05,WNW,291,0.0,0.0,93,0.00,,,0.00,VWS V14.01,2013-08-12 06:20:00,
2013-08-12 02:25:00,63.9,61.8,30.05,WNW,291,0.0,0.0,93,0.00,,,0.00,VWS V14.01,2013-08-12 06:25:00,
2013-08-12 02:30:00,63.7,61.6,30.05,WNW,291,0.0,0.0,93,0.00,,,0.00,VWS V14.01,2013-08-12 06:30:00,
2013-08-12 02:35:00,63.7,61.6,30.05,WNW,291,0.0,0.0,93,0.00,,,0.00,VWS V14.01,2013-08-12 06:35:00,
2013-08-12 02:40:00,63.7,61.6,30.05,WNW,291,0.0,0.0,93,0.00,,,0.00,VWS V14.01,2013-08-12 06:40:00,
2013-08-12 02:45:00,63.5,61.4,30.05,WNW,291,0.0,0.0,93,0.00,,,0.00,VWS V14.01,2013-08-12 06:45:00,
2013-08-12 02:50:00,63.4,61.3,30.05,WNW,291,0.0,0.0,93,0.00,,,0.00,VWS V14.01,2013-08-12 06:50:00,
2013-08-12 02:55:00,63.4,61.3,30.05,WNW,291,0.0,0.0,93,0.00,,,0.00,VWS V14.01,2013-08-12 06:55:00,
2013-08-12 03:00:00,63.2,61.2,30.05,WNW,291,0.0,0.0,93,0.00,,,0.00,VWS V14.01,2013-08-12 07:00:00,
2013-08-12 03:05:00,63.2,61.2,30.05,WNW,291,0.0,0.0,93,0.00,,,0.00,VWS V14.01,2013-08-12 07:05:00,
2013-08-12 03:10:00,63.1,61.0,30.05,WNW,291,0.0,0.0,93,0.00,,,0.00,VWS V14.01,2013-08-12 07:10:00,
2013-08-12 03:15:00,62.9,60.8,30.05,WNW,291,0.0,0.0,93,0.00,,,0.00,VWS V14.01,2013-08-12 07:15:00,
2013-08-12 03:20:00,62.9,60.8,30.05,WNW,291,0.0,0.0,93,0.00,,,0.00,VWS V14.01,2013-08-12 07:20:00,
2013-08-12 03:25:00,62.7,61.0,30.05,WNW,291,0.0,0.0,94,0.00,,,0.00,VWS V14.01,2013-08-12 07:25:00,
2013-08-12 03:30:00,62.6,60.8,30.05,WNW,291,0.0,0.0,94,0.00,,,0.00,VWS V14.01,2013-08-12 07:30:00,
2013-08-12 03:35:00,62.6,60.8,30.05,WNW,291,0.0,0.0,94,0.00,,,0.00,VWS V14.01,2013-08-12 07:35:00,
2013-08-12 03:40:00,62.4,60.7,30.05,WNW,291,0.0,0.0,94,0.00,,,0.00,VWS V14.01,2013-08-12 07:40:00,
2013-08-12 03:45:00,62.4,60.7,30.04,WNW,291,0.0,0.0,94,0.00,,,0.00,VWS V14.01,2013-08-12 07:45:00,
2013-08-12 03:50:00,62.3,60.6,30.04,WNW,291,0.0,0.0,94,0.00,,,0.00,VWS V14.01,2013-08-12 07:50:00,
2013-08-12 03:55:00,62.1,60.4,30.04,WNW,291,0.0,0.0,94,0.00,,,0.00,VWS V14.01,2013-08-12 07:55:00,
2013-08-12 04:00:00,62.1,60.4,30.04,WNW,291,0.0,0.0,94,0.00,,,0.00,VWS V14.01,2013-08-12 08:00:00,
2013-08-12 04:05:00,62.1,60.4,30.04,WNW,291,0.0,0.0,94,0.00,,,0.00,VWS V14.01,2013-08-12 08:05:00,
2013-08-12 04:10:00,62.1,60.4,30.04,WNW,291,0.0,0.0,94,0.00,,,0.00,VWS V14.01,2013-08-12 08:10:00,
2013-08-12 04:15:00,62.0,60.3,30.05,WNW,291,0.0,0.0,94,0.00,,,0.00,VWS V14.01,2013-08-12 08:15:00,
2013-08-12 04:20:00,62.0,60.3,30.05,WNW,291,0.0,0.0,94,0.00,,,0.00,VWS V14.01,2013-08-12 08:20:00,
2013-08-12 04:25:00,62.0,60.3,30.05,WNW,291,0.0,0.0,94,0.00,,,0.00,VWS V14.01,2013-08-12 08:25:00,
2013-08-12 04:30:00,61.8,60.1,30.04,WNW,291,0.0,0.0,94,0.00,,,0.00,VWS V14.01,2013-08-12 08:30:00,
2013-08-12 04:35:00,61.8,60.1,30.04,WNW,291,0.0,0.0,94,0.00,,,0.00,VWS V14.01,2013-08-12 08:35:00,
2013-08-12 04:40:00,61.6,59.9,30.04,WNW,291,0.0,0.0,94,0.00,,,0.00,VWS V14.01,2013-08-12 08:40:00,
2013-08-12 04:45:00,61.6,59.9,30.04,WNW,291,0.0,0.0,94,0.00,,,0.00,VWS V14.01,2013-08-12 08:45:00,
2013-08-12 04:50:00,61.5,59.8,30.04,WNW,291,0.0,0.0,94,0.00,,,0.00,VWS V14.01,2013-08-12 08:50:00,
2013-08-12 04:55:00,61.5,59.8,30.04,WNW,291,0.0,0.0,94,0.00,,,0.00,VWS V14.01,2013-08-12 08:55:00,
2013-08-12 05:00:00,61.3,59.6,30.04,WNW,291,0.0,0.0,94,0.00,,,0.00,VWS V14.01,2013-08-12 09:00:00,
2013-08-12 05:05:00,61.3,59.6,30.04,WNW,291,0.0,0.0,94,0.00,,,0.00,VWS V14.01,2013-08-12 09:05:00,
2013-08-12 05:10:00,61.2,59.5,30.04,WNW,291,0.0,0.0,94,0.00,,,0.00,VWS V14.01,2013-08-12 09:10:00,
2013-08-12 05:15:00,61.2,59.5,30.04,WNW,291,0.0,0.0,94,0.00,,,0.00,VWS V14.01,2013-08-12 09:15:00,
2013-08-12 05:20:00,61.0,59.3,30.04,WNW,291,0.0,0.0,94,0.00,,,0.00,VWS V14.01,2013-08-12 09:20:00,
2013-08-12 05:25:00,60.9,59.2,30.04,WNW,291,0.0,0.0,94,0.00,,,0.00,VWS V14.01,2013-08-12 09:25:00,
2013-08-12 05:30:00,60.7,59.0,30.04,WNW,291,0.0,0.0,94,0.00,,,0.00,VWS V14.01,2013-08-12 09:30:00,
2013-08-12 05:35:00,60.7,59.3,30.04,WNW,291,0.0,0.0,95,0.00,,,0.00,VWS V14.01,2013-08-12 09:35:00,
2013-08-12 05:40:00,60.9,59.5,30.04,WNW,291,0.0,0.0,95,0.00,,,0.00,VWS V14.01,2013-08-12 09:40:00,
2013-08-12 05:45:00,60.9,59.5,30.04,WNW,291,0.0,0.0,95,0.00,,,0.00,VWS V14.01,2013-08-12 09:45:00,
2013-08-12 05:50:00,60.9,59.5,30.04,WNW,291,0.0,0.0,95,0.00,,,0.00,VWS V14.01,2013-08-12 09:50:00,
2013-08-12 05:55:00,60.7,59.3,30.04,WNW,291,0.0,0.0,95,0.00,,,0.00,VWS V14.01,2013-08-12 09:55:00,
2013-08-12 06:00:00,60.7,59.3,30.04,WNW,291,0.0,0.0,95,0.00,,,0.00,VWS V14.01,2013-08-12 10:00:00,
2013-08-12 06:05:00,60.7,59.3,30.04,WNW,291,0.0,0.0,95,0.00,,,0.00,VWS V14.01,2013-08-12 10:05:00,
2013-08-12 06:10:00,60.5,59.1,30.04,WNW,291,0.0,0.0,95,0.00,,,0.00,VWS V14.01,2013-08-12 10:10:00,
2013-08-12 06:15:00,60.5,59.1,30.05,WNW,291,0.0,0.0,95,0.00,,,0.00,VWS V14.01,2013-08-12 10:15:00,
2013-08-12 06:20:00,60.4,59.0,30.05,WNW,291,0.0,0.0,95,0.00,,,0.00,VWS V14.01,2013-08-12 10:20:00,
2013-08-12 06:25:00,60.4,59.0,30.05,WNW,291,0.0,0.0,95,0.00,,,0.00,VWS V14.01,2013-08-12 10:25:00,
2013-08-12 06:30:00,60.4,59.0,30.04,WNW,291,0.0,0.0,95,0.00,,,0.00,VWS V14.01,2013-08-12 10:30:00,
2013-08-12 06:35:00,60.2,58.8,30.04,WNW,291,0.0,0.0,95,0.00,,,0.00,VWS V14.01,2013-08-12 10:35:00,
2013-08-12 06:40:00,60.2,58.8,30.04,WNW,291,0.0,0.0,95,0.00,,,0.00,VWS V14.01,2013-08-12 10:40:00,
2013-08-12 06:45:00,60.1,58.7,30.04,WNW,291,0.0,0.0,95,0.00,,,0.00,VWS V14.01,2013-08-12 10:45:00,
2013-08-12 06:50:00,60.1,58.7,30.04,WNW,291,0.0,0.0,95,0.00,,,0.00,VWS V14.01,2013-08-12 10:50:00,
2013-08-12 06:55:00,60.1,58.7,30.04,WNW,291,0.0,0.0,95,0.00,,,0.00,VWS V14.01,2013-08-12 10:55:00,
2013-08-12 07:00:00,60.1,58.7,30.05,WNW,291,0.0,0.0,95,0.00,,,0.00,VWS V14.01,2013-08-12 11:00:00,
2013-08-12 07:05:00,60.2,58.8,30.05,WNW,291,0.0,0.0,95,0.00,,,0.00,VWS V14.01,2013-08-12 11:05:00,
2013-08-12 07:10:00,60.5,59.1,30.05,WNW,291,0.0,0.0,95,0.00,,,0.00,VWS V14.01,2013-08-12 11:10:00,
2013-08-12 07:15:00,60.9,59.5,30.05,WNW,291,0.0,0.0,95,0.00,,,0.00,VWS V14.01,2013-08-12 11:15:00,
2013-08-12 07:20:00,61.2,60.0,30.05,WNW,291,0.0,0.0,96,0.00,,,0.00,VWS V14.01,2013-08-12 11:20:00,
2013-08-12 07:25:00,61.5,60.3,30.05,WNW,291,0.0,0.0,96,0.00,,,0.00,VWS V14.01,2013-08-12 11:25:00,
2013-08-12 07:30:00,62.1,61.0,30.05,WNW,291,0.0,0.0,96,0.00,,,0.00,VWS V14.01,2013-08-12 11:30:00,
2013-08-12 07:35:00,62.7,61.5,30.05,WNW,291,0.0,0.0,96,0.00,,,0.00,VWS V14.01,2013-08-12 11:35:00,
2013-08-12 07:40:00,63.2,62.0,30.05,WNW,291,0.0,0.0,96,0.00,,,0.00,VWS V14.01,2013-08-12 11:40:00,
2013-08-12 07:45:00,63.4,62.2,30.04,WNW,291,0.0,0.0,96,0.00,,,0.00,VWS V14.01,2013-08-12 11:45:00,
2013-08-12 07:50:00,63.5,62.0,30.04,WNW,291,0.0,0.0,95,0.00,,,0.00,VWS V14.01,2013-08-12 11:50:00,
2013-08-12 07:55:00,63.7,62.2,30.04,WNW,291,0.0,0.0,95,0.00,,,0.00,VWS V14.01,2013-08-12 11:55:00,
2013-08-12 08:00:00,63.9,62.4,30.04,WNW,291,0.0,0.0,95,0.00,,,0.00,VWS V14.01,2013-08-12 12:00:00,
2013-08-12 08:05:00,63.9,62.4,30.04,WNW,291,0.0,0.0,95,0.00,,,0.00,VWS V14.01,2013-08-12 12:05:00,
2013-08-12 08:10:00,64.3,62.8,30.04,WNW,291,0.0,0.0,95,0.00,,,0.00,VWS V14.01,2013-08-12 12:10:00,
2013-08-12 08:15:00,64.7,63.2,30.04,WNW,291,0.0,0.0,95,0.00,,,0.00,VWS V14.01,2013-08-12 12:15:00,
2013-08-12 08:20:00,65.2,63.7,30.04,WNW,291,0.0,0.0,95,0.00,,,0.00,VWS V14.01,2013-08-12 12:20:00,
2013-08-12 08:25:00,66.0,64.5,30.04,WNW,291,0.0,0.0,95,0.00,,,0.00,VWS V14.01,2013-08-12 12:25:00,
2013-08-12 08:30:00,66.6,65.1,30.04,WNW,291,0.0,0.0,95,0.00,,,0.00,VWS V14.01,2013-08-12 12:30:00,
2013-08-12 08:35:00,67.3,65.2,30.04,WNW,291,0.0,0.0,93,0.00,,,0.00,VWS V14.01,2013-08-12 12:35:00,
2013-08-12 08:40:00,67.9,65.2,30.04,WNW,291,0.0,0.0,91,0.00,,,0.00,VWS V14.01,2013-08-12 12:40:00,
2013-08-12 08:45:00,68.8,65.8,30.04,WNW,291,0.0,0.0,90,0.00,,,0.00,VWS V14.01,2013-08-12 12:45:00,
2013-08-12 08:50:00,69.6,65.6,30.04,WNW,291,0.0,0.0,87,0.00,,,0.00,VWS V14.01,2013-08-12 12:50:00,
2013-08-12 08:55:00,70.6,65.2,30.04,WNW,291,0.0,0.0,83,0.00,,,0.00,VWS V14.01,2013-08-12 12:55:00,
2013-08-12 09:00:00,71.3,64.8,30.04,WNW,291,0.0,0.0,80,0.00,,CLR,0.00,VWS V14.01,2013-08-12 13:00:00,
2013-08-12 09:05:00,72.0,65.1,30.04,WNW,291,0.0,0.0,79,0.00,,CLR,0.00,VWS V14.01,2013-08-12 13:05:00,
2013-08-12 09:10:00,72.7,65.8,30.04,WNW,291,0.0,0.0,79,0.00,,CLR,0.00,VWS V14.01,2013-08-12 13:10:00,
2013-08-12 09:15:00,73.5,65.9,30.04,WNW,291,0.0,0.0,77,0.00,,CLR,0.00,VWS V14.01,2013-08-12 13:15:00,
2013-08-12 09:20:00,74.0,66.0,30.04,WNW,291,0.0,0.0,76,0.00,,CLR,0.00,VWS V14.01,2013-08-12 13:20:00,
2013-08-12 09:25:00,74.7,66.6,30.04,WNW,291,0.0,0.0,76,0.00,,CLR,0.00,VWS V14.01,2013-08-12 13:25:00,
2013-08-12 09:30:00,75.3,66.4,30.03,WNW,287,0.0,0.0,74,0.00,,CLR,0.00,VWS V14.01,2013-08-12 13:30:00,
2013-08-12 09:35:00,75.4,65.8,30.03,West,277,0.0,0.0,72,0.00,,CLR,0.00,VWS V14.01,2013-08-12 13:35:00,
2013-08-12 09:40:00,75.6,65.9,30.03,West,277,0.0,0.0,72,0.00,,CLR,0.00,VWS V14.01,2013-08-12 13:40:00,
2013-08-12 09:45:00,76.0,65.1,30.03,West,277,0.0,0.0,69,0.00,,CLR,0.00,VWS V14.01,2013-08-12 13:45:00,
2013-08-12 09:50:00,76.1,64.4,30.03,West,277,0.0,0.0,67,0.00,,CLR,0.00,VWS V14.01,2013-08-12 13:50:00,
2013-08-12 09:55:00,76.7,65.3,30.03,West,277,0.0,0.0,68,0.00,,CLR,0.00,VWS V14.01,2013-08-12 13:55:00,
2013-08-12 10:00:00,77.4,67.7,30.02,West,277,0.0,0.0,72,0.00,,CLR,0.00,VWS V14.01,2013-08-12 14:00:00,
2013-08-12 10:05:00,77.7,66.3,30.02,West,277,0.0,0.0,68,0.00,,CLR,0.00,VWS V14.01,2013-08-12 14:05:00,
2013-08-12 10:10:00,77.9,66.5,30.02,West,277,0.0,0.0,68,0.00,,CLR,0.00,VWS V14.01,2013-08-12 14:10:00,
2013-08-12 10:15:00,78.1,66.7,30.03,West,274,0.0,0.0,68,0.00,,CLR,0.00,VWS V14.01,2013-08-12 14:15:00,
2013-08-12 10:20:00,78.5,65.3,30.03,West,260,0.0,0.0,64,0.00,,CLR,0.00,VWS V14.01,2013-08-12 14:20:00,
2013-08-12 10:25:00,79.2,66.4,30.03,West,260,0.0,0.0,65,0.00,,CLR,0.00,VWS V14.01,2013-08-12 14:25:00,
2013-08-12 10:30:00,79.4,64.8,30.03,West,260,0.0,0.0,61,0.00,,CLR,0.00,VWS V14.01,2013-08-12 14:30:00,
2013-08-12 10:35:00,79.2,65.5,30.03,West,260,0.0,0.0,63,0.00,,CLR,0.00,VWS V14.01,2013-08-12 14:35:00,
2013-08-12 10:40:00,79.0,64.9,30.03,West,260,0.0,0.0,62,0.00,,CLR,0.00,VWS V14.01,2013-08-12 14:40:00,
2013-08-12 10:45:00,79.4,66.2,30.03,West,260,0.0,0.0,64,0.00,,CLR,0.00,VWS V14.01,2013-08-12 14:45:00,
2013-08-12 10:50:00,79.4,63.3,30.03,SW,230,2.0,5.0,58,0.00,,CLR,0.00,VWS V14.01,2013-08-12 14:50:00,
2013-08-12 10:55:00,79.8,64.7,30.03,South,172,0.0,5.0,60,0.00,,CLR,0.00,VWS V14.01,2013-08-12 14:55:00,
2013-08-12 11:00:00,80.3,63.7,30.02,South,171,0.0,0.0,57,0.00,,CLR,0.00,VWS V14.01,2013-08-12 15:00:00,
2013-08-12 11:05:00,80.3,64.7,30.02,South,171,0.0,0.0,59,0.00,,CLR,0.00,VWS V14.01,2013-08-12 15:05:00,
2013-08-12 11:10:00,80.1,65.0,30.02,South,171,0.0,0.0,60,0.00,,CLR,0.00,VWS V14.01,2013-08-12 15:10:00,
2013-08-12 11:15:00,80.3,64.2,30.02,South,171,0.0,0.0,58,0.00,,CLR,0.00,VWS V14.01,2013-08-12 15:15:00,
2013-08-12 11:20:00,80.9,65.7,30.02,South,171,0.0,0.0,60,0.00,,CLR,0.00,VWS V14.01,2013-08-12 15:20:00,
2013-08-12 11:26:00,81.1,64.9,30.02,South,171,0.0,0.0,58,0.00,,CLR,0.00,VWS V14.01,2013-08-12 15:26:00,
2013-08-12 11:30:00,81.2,65.5,30.02,South,171,0.0,0.0,59,0.00,,BKN037,0.00,VWS V14.01,2013-08-12 15:30:00,
2013-08-12 11:31:00,81.2,65.0,30.02,South,171,0.0,0.0,58,0.00,,CLR,0.00,VWS V14.01,2013-08-12 15:31:00,
2013-08-12 11:36:00,81.6,65.9,30.02,South,171,0.0,0.0,59,0.00,,CLR,0.00,VWS V14.01,2013-08-12 15:36:00,
2013-08-12 11:41:00,81.8,66.6,30.02,SSE,155,0.0,1.0,60,0.00,,CLR,0.00,VWS V14.01,2013-08-12 15:41:00,
2013-08-12 11:45:00,81.6,66.4,30.01,South,178,0.0,3.0,60,0.00,,BKN037,0.00,VWS V14.01,2013-08-12 15:45:00,
2013-08-12 11:46:00,81.6,67.3,30.01,South,178,0.0,3.0,62,0.00,,CLR,0.00,VWS V14.01,2013-08-12 15:46:00,
2013-08-12 11:51:00,81.4,67.6,30.01,SW,229,0.0,7.0,63,0.00,,CLR,0.00,VWS V14.01,2013-08-12 15:51:00,
2013-08-12 11:56:00,81.2,66.5,30.01,SW,215,0.0,7.0,61,0.00,,CLR,0.00,VWS V14.01,2013-08-12 15:56:00,
2013-08-12 12:00:00,81.2,66.0,30.00,WSW,239,0.0,5.0,60,0.00,,BKN037,0.00,VWS V14.01,2013-08-12 16:00:00,
2013-08-12 12:01:00,81.2,66.5,30.00,SW,232,3.0,3.0,61,0.00,,FEW036,0.00,VWS V14.01,2013-08-12 16:01:00,
2013-08-12 12:06:00,82.0,68.6,30.00,SW,226,0.0,3.0,64,0.00,,FEW036,0.00,VWS V14.01,2013-08-12 16:06:00,
2013-08-12 12:11:00,82.2,66.9,30.00,SW,219,0.0,0.0,60,0.00,,FEW036,0.00,VWS V14.01,2013-08-12 16:11:00,
2013-08-12 12:15:00,82.4,66.7,30.00,SW,223,2.0,6.0,59,0.00,,BKN037,0.00,VWS V14.01,2013-08-12 16:15:00,
2013-08-12 12:16:00,82.4,66.7,30.00,SSW,210,0.0,6.0,59,0.00,,FEW036,0.00,VWS V14.01,2013-08-12 16:16:00,
2013-08-12 12:21:00,82.8,68.0,30.00,South,181,3.0,6.0,61,0.00,,FEW036,0.00,VWS V14.01,2013-08-12 16:21:00,
2013-08-12 12:26:00,82.8,68.0,30.00,SSW,213,0.0,6.0,61,0.00,,FEW036,0.00,VWS V14.01,2013-08-12 16:26:00,
2013-08-12 12:30:00,82.6,65.8,30.00,SSW,210,0.0,6.0,57,0.00,,BKN037,0.00,VWS V14.01,2013-08-12 16:30:00,
2013-08-12 12:31:00,82.6,65.8,30.00,SSW,212,0.0,6.0,57,0.00,,FEW036,0.00,VWS V14.01,2013-08-12 16:31:00,
2013-08-12 12:36:00,83.0,67.7,30.00,SSE,155,0.0,6.0,60,0.00,,FEW036,0.00,VWS V14.01,2013-08-12 16:36:00,
2013-08-12 12:41:00,83.4,69.0,30.00,SSW,203,0.0,1.0,62,0.00,,FEW036,0.00,VWS V14.01,2013-08-12 16:41:00,
2013-08-12 12:45:00,83.6,68.3,30.00,SSW,200,0.0,0.0,60,0.00,,BKN037,0.00,VWS V14.01,2013-08-12 16:45:00,
2013-08-12 12:46:00,83.6,67.8,30.00,SSW,199,0.0,0.0,59,0.00,,FEW036,0.00,VWS V14.01,2013-08-12 16:46:00,
2013-08-12 12:51:00,83.6,67.3,30.00,SSW,196,0.0,1.0,58,0.00,,FEW036,0.00,VWS V14.01,2013-08-12 16:51:00,
2013-08-12 12:56:00,83.4,66.1,30.00,SSW,195,0.0,0.0,56,0.00,,FEW036,0.00,VWS V14.01,2013-08-12 16:56:00,
2013-08-12 13:00:00,83.4,66.1,30.00,SW,219,0.0,7.0,56,0.00,,BKN037,0.00,VWS V14.01,2013-08-12 17:00:00,
2013-08-12 13:01:00,83.6,66.3,30.00,SW,219,0.0,7.0,56,0.00,,SCT035,0.00,VWS V14.01,2013-08-12 17:01:00,
2013-08-12 13:06:00,83.6,66.3,30.00,SSW,210,3.0,7.0,56,0.00,,SCT035,0.00,VWS V14.01,2013-08-12 17:06:00,
2013-08-12 13:11:00,83.8,68.4,30.00,SSW,213,0.0,6.0,60,0.00,,SCT035,0.00,VWS V14.01,2013-08-12 17:11:00,
2013-08-12 13:15:00,83.6,66.8,30.00,West,260,0.0,0.0,57,0.00,,BKN037,0.00,VWS V14.01,2013-08-12 17:15:00,
2013-08-12 13:16:00,83.6,66.8,30.00,West,260,0.0,0.0,57,0.00,,SCT035,0.00,VWS V14.01,2013-08-12 17:16:00,
2013-08-12 13:21:00,84.1,68.2,30.00,SW,236,0.0,6.0,59,0.00,,SCT035,0.00,VWS V14.01,2013-08-12 17:21:00,
2013-08-12 13:26:00,84.1,68.2,30.00,South,171,0.0,8.0,59,0.00,,SCT035,0.00,VWS V14.01,2013-08-12 17:26:00,
2013-08-12 13:30:00,84.3,66.9,29.99,SSW,193,3.0,6.0,56,0.00,,BKN037,0.00,VWS V14.01,2013-08-12 17:30:00,
2013-08-12 13:31:00,84.1,65.7,29.99,SSW,193,0.0,6.0,54,0.00,,SCT035,0.00,VWS V14.01,2013-08-12 17:31:00,
2013-08-12 13:36:00,84.5,68.1,29.99,SSW,196,0.0,6.0,58,0.00,,SCT035,0.00,VWS V14.01,2013-08-12 17:36:00,
2013-08-12 13:41:00,84.7,67.3,29.99,SSW,199,0.0,0.0,56,0.00,,SCT035,0.00,VWS V14.01,2013-08-12 17:41:00,
2013-08-12 13:45:00,84.5,68.6,29.99,SSW,199,0.0,0.0,59,0.00,,BKN037,0.00,VWS V14.01,2013-08-12 17:45:00,
2013-08-12 13:46:00,84.7,70.2,29.99,SSW,199,0.0,0.0,62,0.00,,SCT035,0.00,VWS V14.01,2013-08-12 17:46:00,
2013-08-12 13:51:00,84.5,65.5,29.99,SSW,205,3.0,10.0,53,0.00,,SCT035,0.00,VWS V14.01,2013-08-12 17:51:00,
2013-08-12 13:56:00,84.1,66.2,29.99,SW,236,0.0,10.0,55,0.00,,SCT035,0.00,VWS V14.01,2013-08-12 17:56:00,
2013-08-12 14:00:00,84.5,67.6,29.98,SW,217,6.0,9.0,57,0.00,,BKN037,0.00,VWS V14.01,2013-08-12 18:00:00,
2013-08-12 14:01:00,84.5,67.6,29.98,SW,217,0.0,9.0,57,0.00,,FEW037,0.00,VWS V14.01,2013-08-12 18:01:00,
2013-08-12 14:06:00,85.1,66.6,29.98,SW,216,0.0,8.0,54,0.00,,FEW037,0.00,VWS V14.01,2013-08-12 18:06:00,
2013-08-12 14:11:00,85.5,67.0,29.98,WSW,253,0.0,6.0,54,0.00,,FEW037,0.00,VWS V14.01,2013-08-12 18:11:00,
2013-08-12 14:15:00,85.5,68.0,29.98,WSW,239,0.0,8.0,56,0.00,,BKN037,0.00,VWS V14.01,2013-08-12 18:15:00,
2013-08-12 14:16:00,85.7,68.2,29.98,West,270,0.0,8.0,56,0.00,,FEW037,0.00,VWS V14.01,2013-08-12 18:16:00,
2013-08-12 14:21:00,85.5,67.0,29.98,WSW,248,0.0,7.0,54,0.00,,FEW037,0.00,VWS V14.01,2013-08-12 18:21:00,
2013-08-12 14:26:00,85.9,67.9,29.98,WSW,237,0.0,4.0,55,0.00,,FEW037,0.00,VWS V14.01,2013-08-12 18:26:00,
2013-08-12 14:30:00,85.7,67.2,29.97,SW,236,0.0,1.0,54,0.00,,BKN037,0.00,VWS V14.01,2013-08-12 18:30:00,
2013-08-12 14:31:00,85.7,67.7,29.97,SSE,168,0.0,6.0,55,0.00,,FEW037,0.00,VWS V14.01,2013-08-12 18:31:00,
2013-08-12 14:36:00,85.5,68.0,29.97,SE,136,0.0,7.0,56,0.00,,FEW037,0.00,VWS V14.01,2013-08-12 18:36:00,
2013-08-12 14:41:00,85.1,69.2,29.97,SSE,151,0.0,4.0,59,0.00,,FEW037,0.00,VWS V14.01,2013-08-12 18:41:00,
2013-08-12 14:45:00,84.5,66.1,29.97,SW,220,0.0,7.0,54,0.00,,BKN037,0.00,VWS V14.01,2013-08-12 18:45:00,
2013-08-12 14:46:00,84.5,67.6,29.97,SW,219,0.0,7.0,57,0.00,,FEW037,0.00,VWS V14.01,2013-08-12 18:46:00,
2013-08-12 14:51:00,84.7,67.3,29.97,SSW,206,2.0,7.0,56,0.00,,FEW037,0.00,VWS V14.01,2013-08-12 18:51:00,
2013-08-12 14:56:00,85.3,65.7,29.97,South,189,0.0,7.0,52,0.00,,FEW037,0.00,VWS V14.01,2013-08-12 18:56:00,
2013-08-12 15:00:00,85.3,66.2,29.97,SW,233,0.0,7.0,53,0.00,,BKN037,0.00,VWS V14.01,2013-08-12 19:00:00,
2013-08-12 15:01:00,85.1,67.7,29.97,SW,233,0.0,7.0,56,0.00,,SCT050,0.00,VWS V14.01,2013-08-12 19:01:00,
2013-08-12 15:06:00,84.7,68.3,29.97,SW,236,0.0,0.0,58,0.00,,SCT050,0.00,VWS V14.01,2013-08-12 19:06:00,
2013-08-12 15:11:00,84.5,67.6,29.97,WSW,254,0.0,5.0,57,0.00,,SCT050,0.00,VWS V14.01,2013-08-12 19:11:00,
2013-08-12 15:15:00,84.3,67.9,29.96,SW,224,0.0,5.0,58,0.00,,BKN037,0.00,VWS V14.01,2013-08-12 19:15:00,
2013-08-12 15:16:00,84.3,67.9,29.96,SW,224,0.0,5.0,58,0.00,,SCT050,0.00,VWS V14.01,2013-08-12 19:16:00,
2013-08-12 15:21:00,83.8,67.0,29.96,SW,236,0.0,6.0,57,0.00,,SCT050,0.00,VWS V14.01,2013-08-12 19:21:00,
2013-08-12 15:26:00,83.6,67.3,29.96,SW,232,0.0,6.0,58,0.00,,SCT050,0.00,VWS V14.01,2013-08-12 19:26:00,
2013-08-12 15:30:00,83.4,67.6,29.96,SW,224,0.0,1.0,59,0.00,,BKN037,0.00,VWS V14.01,2013-08-12 19:30:00,
2013-08-12 15:31:00,83.4,68.1,29.96,SW,224,0.0,1.0,60,0.00,,SCT050,0.00,VWS V14.01,2013-08-12 19:31:00,
2013-08-12 15:36:00,84.0,69.6,29.96,SW,224,0.0,1.0,62,0.00,,SCT050,0.00,VWS V14.01,2013-08-12 19:36:00,
2013-08-12 15:41:00,84.0,66.6,29.96,SW,234,0.0,1.0,56,0.00,,SCT050,0.00,VWS V14.01,2013-08-12 19:41:00,
2013-08-12 15:45:00,84.0,67.7,29.94,SW,234,0.0,1.0,58,0.00,,BKN037,0.00,VWS V14.01,2013-08-12 19:45:00,
2013-08-12 15:46:00,84.1,67.7,29.94,West,280,2.0,6.0,58,0.00,,SCT050,0.00,VWS V14.01,2013-08-12 19:46:00,
2013-08-12 15:51:00,84.7,66.8,29.94,WSW,250,0.0,6.0,55,0.00,,SCT050,0.00,VWS V14.01,2013-08-12 19:51:00,
2013-08-12 15:56:00,84.7,67.3,29.94,SW,217,0.0,7.0,56,0.00,,SCT050,0.00,VWS V14.01,2013-08-12 19:56:00,
2013-08-12 16:00:00,84.9,68.0,29.94,SW,217,0.0,7.0,57,0.00,,BKN037,0.00,VWS V14.01,2013-08-12 20:00:00,
2013-08-12 16:01:00,85.3,67.8,29.94,SW,216,0.0,3.0,56,0.00,,FEW044,0.00,VWS V14.01,2013-08-12 20:01:00,
2013-08-12 16:06:00,85.9,66.8,29.94,WSW,247,0.0,7.0,53,0.00,,FEW044,0.00,VWS V14.01,2013-08-12 20:06:00,
2013-08-12 16:11:00,86.3,66.6,29.94,SSW,213,0.0,6.0,52,0.00,,FEW044,0.00,VWS V14.01,2013-08-12 20:11:00,
2013-08-12 16:15:00,86.1,66.4,29.93,SW,216,6.0,6.0,52,0.00,,BKN037,0.00,VWS V14.01,2013-08-12 20:15:00,
2013-08-12 16:16:00,85.7,66.1,29.93,SW,216,0.0,6.0,52,0.00,,FEW044,0.00,VWS V14.01,2013-08-12 20:16:00,
2013-08-12 16:21:00,84.7,67.3,29.93,SSW,199,0.0,6.0,56,0.00,,FEW044,0.00,VWS V14.01,2013-08-12 20:21:00,
2013-08-12 16:26:00,84.7,67.8,29.93,SSW,202,0.0,1.0,57,0.00,,FEW044,0.00,VWS V14.01,2013-08-12 20:26:00,
2013-08-12 16:30:00,85.1,68.2,29.92,SSW,203,0.0,5.0,57,0.00,,BKN037,0.00,VWS V14.01,2013-08-12 20:30:00,
2013-08-12 16:31:00,84.9,66.9,29.92,WSW,237,0.0,5.0,55,0.00,,FEW044,0.00,VWS V14.01,2013-08-12 20:31:00,
2013-08-12 16:36:00,84.9,66.9,29.92,SSE,155,0.0,5.0,55,0.00,,FEW044,0.00,VWS V14.01,2013-08-12 20:36:00,
2013-08-12 16:41:00,85.1,69.2,29.92,SSE,155,0.0,1.0,59,0.00,,FEW044,0.00,VWS V14.01,2013-08-12 20:41:00,
2013-08-12 16:45:00,85.5,68.0,29.92,SSE,155,0.0,0.0,56,0.00,,BKN037,0.00,VWS V14.01,2013-08-12 20:45:00,
2013-08-12 16:46:00,85.5,67.0,29.92,SSW,213,0.0,1.0,54,0.00,,FEW044,0.00,VWS V14.01,2013-08-12 20:46:00,
2013-08-12 16:51:00,85.1,68.2,29.92,SSW,208,0.0,8.0,57,0.00,,FEW044,0.00,VWS V14.01,2013-08-12 20:51:00,
2013-08-12 16:56:00,85.1,67.1,29.92,SSW,205,0.0,6.0,55,0.00,,FEW044,0.00,VWS V14.01,2013-08-12 20:56:00,
2013-08-12 17:00:00,85.3,67.3,29.92,SSW,198,0.0,0.0,55,0.00,,BKN037,0.00,VWS V14.01,2013-08-12 21:00:00,
2013-08-12 17:01:00,85.5,67.5,29.92,SSW,192,0.0,0.0,55,0.00,,FEW049,0.00,VWS V14.01,2013-08-12 21:01:00,
2013-08-12 17:06:00,85.5,67.5,29.92,SSE,165,0.0,5.0,55,0.00,,FEW049,0.00,VWS V14.01,2013-08-12 21:06:00,
2013-08-12 17:11:00,85.5,67.5,29.92,SSE,161,0.0,0.0,55,0.00,,FEW049,0.00,VWS V14.01,2013-08-12 21:11:00,
2013-08-12 17:15:00,85.7,66.6,29.91,South,169,0.0,0.0,53,0.00,,BKN037,0.00,VWS V14.01,2013-08-12 21:15:00,
2013-08-12 17:16:00,85.7,66.6,29.91,South,174,0.0,0.0,53,0.00,,FEW049,0.00,VWS V14.01,2013-08-12 21:16:00,
2013-08-12 17:21:00,85.1,67.7,29.91,South,178,0.0,3.0,56,0.00,,FEW049,0.00,VWS V14.01,2013-08-12 21:21:00,
2013-08-12 17:26:00,84.5,68.1,29.91,South,178,0.0,3.0,58,0.00,,FEW049,0.00,VWS V14.01,2013-08-12 21:26:00,
2013-08-12 17:30:00,84.3,67.4,29.91,South,178,0.0,0.0,57,0.00,,BKN037,0.00,VWS V14.01,2013-08-12 21:30:00,
2013-08-12 17:31:00,84.3,67.9,29.91,South,178,0.0,0.0,58,0.00,,FEW049,0.00,VWS V14.01,2013-08-12 21:31:00,
2013-08-12 17:36:00,84.1,68.7,29.91,SSW,212,3.0,6.0,60,0.00,,FEW049,0.00,VWS V14.01,2013-08-12 21:36:00,
2013-08-12 17:42:00,83.8,68.0,29.91,SSW,203,0.0,7.0,59,0.00,,FEW049,0.00,VWS V14.01,2013-08-12 21:42:00,
2013-08-12 17:45:00,83.6,67.8,29.91,SSW,203,0.0,7.0,59,0.00,,BKN037,0.00,VWS V14.01,2013-08-12 21:45:00,
2013-08-12 17:47:00,83.6,68.3,29.91,SSW,203,0.0,0.0,60,0.00,,FEW049,0.00,VWS V14.01,2013-08-12 21:47:00,
2013-08-12 17:52:00,83.6,68.3,29.91,SSW,203,0.0,0.0,60,0.00,,FEW049,0.00,VWS V14.01,2013-08-12 21:52:00,
2013-08-12 17:57:00,83.2,68.8,29.91,SSW,203,0.0,0.0,62,0.00,,FEW049,0.00,VWS V14.01,2013-08-12 21:57:00,
2013-08-12 18:00:00,83.0,68.2,29.90,SSW,203,0.0,0.0,61,0.00,,BKN037,0.00,VWS V14.01,2013-08-12 22:00:00,
2013-08-12 18:02:00,83.0,69.1,29.90,SSW,203,0.0,0.0,63,0.00,,CLR,0.00,VWS V14.01,2013-08-12 22:02:00,
2013-08-12 18:07:00,82.6,68.7,29.90,SSW,202,0.0,0.0,63,0.00,,CLR,0.00,VWS V14.01,2013-08-12 22:07:00,
2013-08-12 18:12:00,82.4,69.0,29.90,SSW,202,0.0,0.0,64,0.00,,CLR,0.00,VWS V14.01,2013-08-12 22:12:00,
2013-08-12 18:15:00,82.4,69.0,29.91,SSE,160,0.0,0.0,64,0.00,,BKN037,0.00,VWS V14.01,2013-08-12 22:15:00,
2013-08-12 18:17:00,82.4,69.0,29.91,SSE,160,0.0,0.0,64,0.00,,CLR,0.00,VWS V14.01,2013-08-12 22:17:00,
2013-08-12 18:22:00,82.4,69.0,29.91,SSE,161,0.0,0.0,64,0.00,,CLR,0.00,VWS V14.01,2013-08-12 22:22:00,
2013-08-12 18:27:00,82.4,69.0,29.91,SSE,161,0.0,0.0,64,0.00,,CLR,0.00,VWS V14.01,2013-08-12 22:27:00,
2013-08-12 18:30:00,82.4,69.5,29.90,SSE,161,0.0,0.0,65,0.00,,BKN037,0.00,VWS V14.01,2013-08-12 22:30:00,
2013-08-12 18:32:00,82.4,69.0,29.90,SSE,161,0.0,0.0,64,0.00,,CLR,0.00,VWS V14.01,2013-08-12 22:32:00,
2013-08-12 18:37:00,82.2,68.8,29.90,SSE,155,0.0,0.0,64,0.00,,CLR,0.00,VWS V14.01,2013-08-12 22:37:00,
2013-08-12 18:42:00,82.2,68.8,29.90,SSE,157,0.0,0.0,64,0.00,,CLR,0.00,VWS V14.01,2013-08-12 22:42:00,
2013-08-12 18:45:00,82.2,68.8,29.89,SSE,157,0.0,0.0,64,0.00,,BKN037,0.00,VWS V14.01,2013-08-12 22:45:00,
2013-08-12 18:47:00,82.2,68.8,29.89,SSE,157,0.0,0.0,64,0.00,,CLR,0.00,VWS V14.01,2013-08-12 22:47:00,
2013-08-12 18:52:00,82.2,68.8,29.89,SSE,157,0.0,0.0,64,0.00,,CLR,0.00,VWS V14.01,2013-08-12 22:52:00,
2013-08-12 18:57:00,82.0,68.6,29.89,SSE,157,0.0,0.0,64,0.00,,CLR,0.00,VWS V14.01,2013-08-12 22:57:00,
2013-08-12 19:00:00,81.8,68.9,29.88,SSE,158,0.0,0.0,65,0.00,,BKN037,0.00,VWS V14.01,2013-08-12 23:00:00,
2013-08-12 19:02:00,81.8,68.9,29.88,SSE,158,0.0,0.0,65,0.00,,CLR,0.00,VWS V14.01,2013-08-12 23:02:00,
2013-08-12 19:07:00,81.6,69.2,29.88,SSE,158,0.0,0.0,66,0.00,,CLR,0.00,VWS V14.01,2013-08-12 23:07:00,
2013-08-12 19:12:00,81.4,69.4,29.88,SSE,158,0.0,0.0,67,0.00,,CLR,0.00,VWS V14.01,2013-08-12 23:12:00,
2013-08-12 19:15:00,81.2,69.6,29.88,SSE,158,0.0,0.0,68,0.00,,BKN037,0.00,VWS V14.01,2013-08-12 23:15:00,
2013-08-12 19:17:00,81.2,69.6,29.88,SSE,158,0.0,0.0,68,0.00,,CLR,0.00,VWS V14.01,2013-08-12 23:17:00,
2013-08-12 19:22:00,81.1,69.6,29.88,SSE,158,0.0,0.0,68,0.00,,CLR,0.00,VWS V14.01,2013-08-12 23:22:00,
2013-08-12 19:27:00,80.9,69.8,29.88,SSE,158,0.0,0.0,69,0.00,,CLR,0.00,VWS V14.01,2013-08-12 23:27:00,
2013-08-12 19:30:00,80.7,69.6,29.88,SSE,158,0.0,0.0,69,0.00,,BKN037,0.00,VWS V14.01,2013-08-12 23:30:00,
2013-08-12 19:32:00,80.7,69.6,29.88,SSE,158,0.0,0.0,69,0.00,,CLR,0.00,VWS V14.01,2013-08-12 23:32:00,
2013-08-12 19:37:00,80.5,69.8,29.88,SSE,158,0.0,0.0,70,0.00,,CLR,0.00,VWS V14.01,2013-08-12 23:37:00,
2013-08-12 19:42:00,80.3,70.1,29.88,SSE,158,0.0,0.0,71,0.00,,CLR,0.00,VWS V14.01,2013-08-12 23:42:00,
2013-08-12 19:45:00,80.1,69.9,29.88,SSE,162,0.0,0.0,71,0.00,,BKN037,0.00,VWS V14.01,2013-08-12 23:45:00,
2013-08-12 19:47:00,80.1,69.9,29.88,SSE,162,0.0,0.0,71,0.00,,CLR,0.00,VWS V14.01,2013-08-12 23:47:00,
2013-08-12 19:52:00,79.9,69.2,29.88,SSE,164,0.0,1.0,70,0.00,,CLR,0.00,VWS V14.01,2013-08-12 23:52:00,
2013-08-12 19:57:00,79.8,68.7,29.88,SSE,164,0.0,1.0,69,0.00,,CLR,0.00,VWS V14.01,2013-08-12 23:57:00,
2013-08-12 20:00:00,79.6,69.0,29.87,SSE,164,0.0,0.0,70,0.00,,BKN037,0.00,VWS V14.01,2013-08-13 00:00:00,
2013-08-12 20:02:00,79.6,69.4,29.87,SSE,164,0.0,0.0,71,0.00,,SCT050,0.00,VWS V14.01,2013-08-13 00:02:00,
2013-08-12 20:07:00,79.4,69.6,29.87,South,181,0.0,0.0,72,0.00,,SCT050,0.00,VWS V14.01,2013-08-13 00:07:00,
2013-08-12 20:12:00,79.2,68.6,29.87,SW,215,0.0,3.0,70,0.00,,SCT050,0.00,VWS V14.01,2013-08-13 00:12:00,
2013-08-12 20:15:00,79.2,68.6,29.87,SSW,202,5.0,6.0,70,0.00,,BKN037,0.00,VWS V14.01,2013-08-13 00:15:00,
2013-08-12 20:17:00,79.2,68.6,29.87,WSW,246,2.0,6.0,70,0.00,,SCT050,0.00,VWS V14.01,2013-08-13 00:17:00,
2013-08-12 20:22:00,79.2,69.0,29.87,WSW,243,0.0,6.0,71,0.00,,SCT050,0.00,VWS V14.01,2013-08-13 00:22:00,
2013-08-12 20:27:00,79.0,69.2,29.87,WSW,243,0.0,0.0,72,0.00,,SCT050,0.00,VWS V14.01,2013-08-13 00:27:00,
2013-08-12 20:30:00,78.8,69.0,29.87,WSW,243,0.0,0.0,72,0.00,,BKN037,0.00,VWS V14.01,2013-08-13 00:30:00,
2013-08-12 20:32:00,78.8,69.8,29.87,WSW,237,0.0,0.0,74,0.00,,SCT050,0.00,VWS V14.01,2013-08-13 00:32:00,
2013-08-12 20:37:00,78.5,69.9,29.87,WSW,237,0.0,0.0,75,0.00,,SCT050,0.00,VWS V14.01,2013-08-13 00:37:00,
2013-08-12 20:42:00,78.3,70.1,29.87,South,189,0.0,6.0,76,0.00,,SCT050,0.00,VWS V14.01,2013-08-13 00:42:00,
2013-08-12 20:45:00,78.1,69.9,29.87,SW,215,0.0,6.0,76,0.00,,BKN037,0.00,VWS V14.01,2013-08-13 00:45:00,
2013-08-12 20:47:00,78.1,70.3,29.87,SSW,213,0.0,6.0,77,0.00,,SCT050,0.00,VWS V14.01,2013-08-13 00:47:00,
2013-08-12 20:52:00,77.9,70.5,29.87,SSW,213,0.0,1.0,78,0.00,,SCT050,0.00,VWS V14.01,2013-08-13 00:52:00,
2013-08-12 20:57:00,77.6,70.2,29.87,SSE,162,0.0,0.0,78,0.00,,SCT050,0.00,VWS V14.01,2013-08-13 00:57:00,
2013-08-12 21:00:00,77.6,70.2,29.87,South,189,0.0,5.0,78,0.00,,BKN037,0.00,VWS V14.01,2013-08-13 01:00:00,
2013-08-12 21:02:00,77.4,70.4,29.87,South,191,1.0,5.0,79,0.00,,OVC100,0.00,VWS V14.01,2013-08-13 01:02:00,
2013-08-12 21:07:00,77.2,70.2,29.87,SSE,168,1.0,7.0,79,0.00,,OVC100,0.00,VWS V14.01,2013-08-13 01:07:00,
2013-08-12 21:12:00,77.0,70.4,29.87,SSW,199,0.0,8.0,80,0.00,,OVC100,0.00,VWS V14.01,2013-08-13 01:12:00,
2013-08-12 21:15:00,76.8,70.2,29.87,SSE,165,0.0,8.0,80,0.00,,BKN037,0.00,VWS V14.01,2013-08-13 01:15:00,
2013-08-12 21:17:00,76.7,70.4,29.87,SE,145,0.0,8.0,81,0.00,,OVC100,0.00,VWS V14.01,2013-08-13 01:17:00,
2013-08-12 21:22:00,76.5,70.2,29.87,South,188,0.0,6.0,81,0.00,,OVC100,0.00,VWS V14.01,2013-08-13 01:22:00,
2013-08-12 21:27:00,76.3,70.4,29.87,South,188,0.0,1.0,82,0.00,,OVC100,0.00,VWS V14.01,2013-08-13 01:27:00,
2013-08-12 21:30:00,76.3,70.4,29.87,South,172,0.0,1.0,82,0.00,,BKN037,0.00,VWS V14.01,2013-08-13 01:30:00,
2013-08-12 21:32:00,76.1,70.2,29.87,South,178,0.0,1.0,82,0.00,,OVC100,0.00,VWS V14.01,2013-08-13 01:32:00,
2013-08-12 21:37:00,76.0,70.5,29.87,South,178,0.0,1.0,83,0.00,,OVC100,0.00,VWS V14.01,2013-08-13 01:37:00,
2013-08-12 21:42:00,75.8,70.3,29.87,South,182,0.0,3.0,83,0.00,,OVC100,0.00,VWS V14.01,2013-08-13 01:42:00,
2013-08-12 21:45:00,75.8,70.3,29.87,South,182,0.0,3.0,83,0.00,,BKN037,0.00,VWS V14.01,2013-08-13 01:45:00,
2013-08-12 21:47:00,75.8,70.3,29.87,South,182,0.0,3.0,83,0.00,,OVC100,0.00,VWS V14.01,2013-08-13 01:47:00,
2013-08-12 21:52:00,75.8,70.3,29.87,SSW,210,1.0,6.0,83,0.00,,OVC100,0.00,VWS V14.01,2013-08-13 01:52:00,
2013-08-12 21:57:00,75.8,70.3,29.87,SSW,210,0.0,3.0,83,0.00,,OVC100,0.00,VWS V14.01,2013-08-13 01:57:00,
2013-08-12 22:00:00,75.8,69.9,29.87,SW,216,6.0,7.0,82,0.00,,BKN037,0.00,VWS V14.01,2013-08-13 02:00:00,
2013-08-12 22:02:00,75.8,69.9,29.87,SW,226,0.0,7.0,82,0.00,,BKN085,0.00,VWS V14.01,2013-08-13 02:02:00,
2013-08-12 22:07:00,75.6,70.1,29.87,SSW,193,0.0,7.0,83,0.00,,BKN085,0.00,VWS V14.01,2013-08-13 02:07:00,
2013-08-12 22:12:00,75.6,70.1,29.87,SSW,209,0.0,5.0,83,0.00,,BKN085,0.00,VWS V14.01,2013-08-13 02:12:00,
2013-08-12 22:15:00,75.6,70.4,29.87,SSW,209,0.0,5.0,84,0.00,,BKN037,0.00,VWS V14.01,2013-08-13 02:15:00,
2013-08-12 22:17:00,75.4,70.2,29.87,SSW,209,0.0,5.0,84,0.00,,BKN085,0.00,VWS V14.01,2013-08-13 02:17:00,
2013-08-12 22:22:00,75.4,70.9,29.87,SSW,213,3.0,4.0,86,0.01,,BKN085,0.01,VWS V14.01,2013-08-13 02:22:00,
2013-08-12 22:27:00,74.9,70.8,29.87,SW,217,0.0,4.0,87,0.04,,BKN085,0.04,VWS V14.01,2013-08-13 02:27:00,
2013-08-12 22:30:00,74.7,70.9,29.87,SSW,212,0.0,4.0,88,0.05,,BKN037,0.05,VWS V14.01,2013-08-13 02:30:00,
2013-08-12 22:32:00,74.6,70.8,29.87,SW,220,4.0,10.0,88,0.06,,,0.06,VWS V14.01,2013-08-13 02:32:00,
2013-08-12 22:37:00,74.0,70.9,29.87,SW,217,0.0,10.0,90,0.07,,,0.07,VWS V14.01,2013-08-13 02:37:00,
2013-08-12 22:42:00,73.9,70.8,29.87,SW,217,0.0,3.0,90,0.07,,,0.07,VWS V14.01,2013-08-13 02:42:00,
2013-08-12 22:45:00,73.9,70.8,29.86,SW,217,0.0,0.0,90,0.07,,BKN037,0.07,VWS V14.01,2013-08-13 02:45:00,
2013-08-12 22:47:00,73.7,70.9,29.86,SW,217,0.0,0.0,91,0.07,,,0.07,VWS V14.01,2013-08-13 02:47:00,
2013-08-12 22:52:00,73.5,70.7,29.86,SW,217,0.0,0.0,91,0.08,,,0.08,VWS V14.01,2013-08-13 02:52:00,
2013-08-12 22:57:00,73.5,70.7,29.86,SW,217,0.0,0.0,91,0.08,,,0.08,VWS V14.01,2013-08-13 02:57:00,
2013-08-12 23:00:00,73.5,70.7,29.87,SW,217,0.0,0.0,91,0.08,,BKN037,0.08,VWS V14.01,2013-08-13 03:00:00,
2013-08-12 23:02:00,73.3,70.8,29.87,SW,217,0.0,0.0,92,0.08,,-RA,0.08,VWS V14.01,2013-08-13 03:02:00,
2013-08-12 23:07:00,73.5,71.0,29.87,SW,217,0.0,0.0,92,0.09,,-RA,0.09,VWS V14.01,2013-08-13 03:07:00,
2013-08-12 23:12:00,73.3,70.8,29.87,SW,217,0.0,0.0,92,0.11,,-RA,0.11,VWS V14.01,2013-08-13 03:12:00,
2013-08-12 23:15:00,73.2,71.1,29.86,SW,217,0.0,0.0,93,0.11,,BKN037,0.11,VWS V14.01,2013-08-13 03:15:00,
2013-08-12 23:17:00,73.2,71.1,29.86,SW,217,0.0,0.0,93,0.11,,-RA,0.11,VWS V14.01,2013-08-13 03:17:00,
2013-08-12 23:22:00,73.0,70.9,29.86,SW,217,0.0,0.0,93,0.11,,-RA,0.11,VWS V14.01,2013-08-13 03:22:00,
2013-08-12 23:27:00,73.0,70.9,29.86,SW,217,0.0,0.0,93,0.11,,-RA,0.11,VWS V14.01,2013-08-13 03:27:00,
2013-08-12 23:30:00,72.8,70.7,29.86,SW,217,0.0,0.0,93,0.11,,BKN037,0.11,VWS V14.01,2013-08-13 03:30:00,
2013-08-12 23:32:00,72.8,70.7,29.86,SW,217,0.0,0.0,93,0.06,,-RA,0.11,VWS V14.01,2013-08-13 03:32:00,
2013-08-12 23:37:00,72.8,70.7,29.86,SW,217,0.0,0.0,93,0.06,,-RA,0.11,VWS V14.01,2013-08-13 03:37:00,
2013-08-12 23:42:00,72.8,70.7,29.86,SW,217,0.0,0.0,93,0.06,,-RA,0.11,VWS V14.01,2013-08-13 03:42:00,
2013-08-12 23:45:00,72.8,70.7,29.85,SW,217,0.0,0.0,93,0.06,,BKN037,0.11,VWS V14.01,2013-08-13 03:45:00,
2013-08-12 23:47:00,72.8,70.7,29.85,SW,217,0.0,0.0,93,0.04,,-RA,0.11,VWS V14.01,2013-08-13 03:47:00,
2013-08-12 23:52:00,72.7,70.6,29.85,SW,217,0.0,0.0,93,0.04,,-RA,0.11,VWS V14.01,2013-08-13 03:52:00,
2013-08-12 23:57:00,72.5,70.4,29.85,SW,217,0.0,0.0,93,0.04,,-RA,0.11,VWS V14.01,2013-08-13 03:57:00,